period_start,C,m1,H,J0,J1,J2,J3,J4,J5,JA,JB,JC,JD,JJ,JK,JN,#
2014-07-24 00:01:15,-0.00,0.01,0.00,24.96,29.22,31.53,9.57,39.17,1014.66,2032.00,3434.95,3321.93,3608.00,500.08,492.54,2.47,0000 0000 0000 0000 000000
2014-07-24 00:06:15,0.02,0.01,0.00,24.97,29.22,31.52,9.49,38.98,1014.66,2032.00,3434.74,3321.55,3608.00,500.32,492.67,2.51,0000 0000 0000 0000 000000
2014-07-24 00:11:16,0.01,0.01,0.00,24.98,29.22,31.53,9.52,39.04,1014.66,2032.00,3434.71,3321.44,3607.99,499.75,492.36,2.55,0000 0000 0000 0000 000000
2014-07-24 00:16:18,0.01,0.01,0.00,24.95,29.23,31.54,9.44,39.04,1014.66,2032.00,3434.50,3321.50,3607.99,500.15,492.65,2.60,0000 0000 0000 0000 000000
2014-07-24 00:21:19,0.00,0.01,0.00,24.94,29.24,31.54,9.44,38.93,1014.66,2032.00,3434.26,3321.37,3607.98,499.27,491.85,2.64,0000 0000 0000 0000 000000
2014-07-24 00:26:20,0.00,0.01,0.00,24.95,29.25,31.54,9.53,38.92,1014.67,2032.00,3434.10,3321.22,3607.97,500.03,492.40,2.68,0000 0000 0000 0000 000000
2014-07-24 00:31:21,0.00,0.01,0.00,24.93,29.25,31.55,9.47,39.00,1014.66,2032.00,3434.04,3321.14,3607.95,499.80,492.35,2.72,0000 0000 0000 0000 000000
2014-07-24 00:36:22,0.00,0.01,0.00,24.94,29.25,31.56,9.48,38.96,1014.67,2031.99,3434.01,3321.08,3607.82,500.12,492.45,2.76,0000 0000 0000 0000 000000
2014-07-24 00:41:23,0.00,0.01,0.00,24.93,29.25,31.55,9.53,38.92,1014.68,2031.99,3434.00,3321.06,3607.55,500.37,492.79,2.80,0000 0000 0000 0000 000000
2014-07-24 00:46:24,0.00,0.01,0.00,24.91,29.25,31.55,9.54,39.04,1014.67,2031.99,3434.00,3321.03,3607.23,500.10,492.69,2.85,0000 0000 0000 0000 000000
2014-07-24 00:51:26,-0.00,0.01,0.00,24.91,29.25,31.56,9.42,39.03,1014.67,2031.99,3434.00,3321.03,3607.17,499.69,492.28,2.89,0000 0000 0000 0000 000000
2014-07-24 00:56:27,-0.00,0.01,0.00,24.92,29.25,31.55,9.42,39.27,1014.67,2031.99,3434.00,3321.03,3607.27,499.58,492.15,2.93,0000 0000 0000 0000 000000
2014-07-24 01:01:28,0.00,0.01,0.00,24.92,29.25,31.56,9.50,38.96,1014.67,2031.99,3434.00,3321.08,3607.15,500.02,492.63,2.97,0000 0000 0000 0000 000000
2014-07-24 01:06:29,0.00,0.01,0.00,24.92,29.25,31.55,9.44,38.88,1014.67,2031.99,3433.99,3321.03,3607.05,499.77,492.44,3.01,0000 0000 0000 0000 000000
2014-07-24 01:11:30,0.00,0.01,0.00,24.94,29.25,31.54,9.52,39.05,1014.68,2031.99,3433.98,3321.01,3607.01,499.80,492.18,3.05,0000 0000 0000 0000 000000
2014-07-24 01:16:31,0.00,0.01,0.00,24.93,29.25,31.55,9.49,39.09,1014.75,2031.99,3433.97,3321.01,3607.00,499.90,492.51,3.10,0000 0000 0000 0000 000000
2014-07-24 01:21:32,0.00,0.01,0.00,24.92,29.25,31.54,9.52,38.98,1014.96,2031.99,3433.95,3321.01,3607.00,500.06,492.72,3.14,0000 0000 0000 0000 000000
2014-07-24 01:26:33,0.00,0.01,0.00,24.92,29.25,31.55,9.47,38.92,1015.10,2031.99,3433.93,3321.01,3607.00,499.96,492.66,3.18,0000 0000 0000 0000 000000
2014-07-24 01:31:34,0.00,0.01,0.00,24.91,29.25,31.56,9.47,38.98,1015.14,2031.99,3433.91,3321.00,3607.00,499.97,492.74,3.22,0000 0000 0000 0000 000000
2014-07-24 01:36:35,0.00,0.01,0.00,24.89,29.25,31.55,9.49,39.07,1015.14,2031.99,3433.90,3321.00,3607.00,499.73,492.73,3.26,0000 0000 0000 0000 000000
2014-07-24 01:41:36,0.00,0.01,0.00,24.88,29.25,31.55,9.48,38.97,1015.13,2031.99,3433.85,3321.01,3606.99,499.67,492.38,3.31,0000 0000 0000 0000 000000
2014-07-24 01:46:37,0.00,0.01,0.00,24.89,29.25,31.55,9.50,38.93,1015.14,2031.99,3433.62,3321.00,3606.98,500.10,492.64,3.35,0000 0000 0000 0000 000000
2014-07-24 01:51:38,0.00,0.01,0.00,24.89,29.25,31.54,9.57,39.16,1015.15,2031.99,3433.32,3321.00,3606.98,500.49,493.26,3.39,0000 0000 0000 0000 000000
2014-07-24 01:56:39,-0.01,0.01,0.00,24.89,29.25,31.54,9.47,39.08,1015.14,2031.99,3433.70,3321.01,3606.99,499.97,492.78,3.43,0000 0000 0000 0000 000000
2014-07-24 02:01:41,0.01,0.01,0.00,24.87,29.25,31.55,9.42,38.95,1015.15,2031.99,3433.39,3321.01,3606.95,499.89,492.83,3.47,0000 0000 0000 0000 000000
2014-07-24 02:06:41,0.00,0.01,0.00,24.87,29.25,31.53,9.51,38.98,1015.15,2031.99,3433.15,3321.00,3606.92,499.88,492.84,3.51,0000 0000 0000 0000 000000
2014-07-24 02:11:42,0.00,0.01,0.00,24.87,29.25,31.53,9.45,39.00,1015.15,2031.99,3433.08,3321.00,3606.68,499.68,492.59,3.56,0000 0000 0000 0000 000000
2014-07-24 02:16:43,0.00,0.01,0.00,24.87,29.25,31.55,9.43,39.08,1015.15,2031.98,3433.04,3321.00,3606.55,499.63,492.47,3.60,0000 0000 0000 0000 000000
2014-07-24 02:21:44,0.00,0.01,0.00,24.88,29.25,31.54,9.48,38.87,1015.15,2031.97,3433.03,3321.00,3606.26,500.26,493.21,3.64,0000 0000 0000 0000 000000
2014-07-24 02:26:45,0.00,0.01,0.00,24.90,29.25,31.53,9.55,39.08,1015.15,2031.96,3433.01,3321.00,3606.20,500.33,493.11,3.68,0000 0000 0000 0000 000000
2014-07-24 02:31:46,0.00,0.01,0.00,24.91,29.25,31.53,9.52,39.02,1015.15,2031.98,3433.02,3321.00,3606.15,499.88,492.82,3.72,0000 0000 0000 0000 000000
2014-07-24 02:36:47,0.00,0.01,0.00,24.90,29.25,31.53,9.50,39.06,1015.16,2031.98,3433.01,3321.00,3606.10,499.89,492.70,3.77,0000 0000 0000 0000 000000
2014-07-24 02:41:48,-0.00,0.01,0.00,24.90,29.25,31.52,9.44,39.00,1015.17,2031.96,3433.00,3320.99,3606.03,499.80,492.77,3.81,0000 0000 0000 0000 000000
2014-07-24 02:46:49,-0.00,0.01,0.00,24.90,29.25,31.55,9.48,39.06,1015.17,2031.94,3433.00,3320.99,3606.01,499.96,492.76,3.85,0000 0000 0000 0000 000000
2014-07-24 02:51:50,-0.02,0.01,0.00,24.92,29.25,31.54,9.51,39.08,1015.16,2031.86,3433.00,3320.98,3606.00,500.02,492.71,3.89,0000 0000 0000 0000 000000
2014-07-24 02:56:50,0.01,0.01,0.00,24.94,29.25,31.52,9.49,39.02,1015.17,2031.91,3433.00,3320.99,3606.00,499.71,492.41,3.93,0000 0000 0000 0000 000000
2014-07-24 03:01:52,0.00,0.01,0.00,24.93,29.25,31.52,9.54,39.13,1015.18,2031.91,3433.00,3320.99,3606.00,500.20,492.97,3.97,0000 0000 0000 0000 000000
2014-07-24 03:06:53,-0.01,0.01,0.00,24.92,29.25,31.52,9.47,39.08,1015.23,2031.88,3433.00,3320.98,3606.00,500.00,492.79,4.02,0000 0000 0000 0000 000000
2014-07-24 03:11:54,-0.02,0.01,0.00,24.94,29.25,31.52,9.46,38.98,1015.21,2031.78,3432.98,3320.98,3605.99,499.85,492.81,4.06,0000 0000 0000 0000 000000
2014-07-24 03:16:55,0.01,0.01,0.00,24.95,29.25,31.52,9.50,39.08,1015.26,2031.76,3432.97,3320.96,3605.98,500.06,492.70,4.10,0000 0000 0000 0000 000000
2014-07-24 03:21:56,-0.00,0.01,0.00,24.98,29.25,31.53,9.47,39.01,1015.31,2031.75,3432.93,3320.94,3605.96,499.91,492.76,4.14,0000 0000 0000 0000 000000
2014-07-24 03:26:57,0.01,0.01,0.00,25.00,29.26,31.53,9.49,39.04,1015.45,2031.75,3432.94,3320.96,3605.97,499.89,492.71,4.18,0000 0000 0000 0000 000000
2014-07-24 03:31:58,-0.01,0.01,0.00,24.98,29.27,31.53,9.49,38.89,1015.48,2031.72,3432.83,3320.92,3605.95,500.09,492.97,4.23,0000 0000 0000 0000 000000
2014-07-24 03:36:59,-0.01,0.01,0.00,24.98,29.27,31.53,9.54,38.93,1015.42,2031.65,3432.91,3320.95,3605.94,500.23,493.08,4.27,0000 0000 0000 0000 000000
2014-07-24 03:42:00,0.02,0.01,0.00,25.00,29.27,31.54,9.50,39.06,1015.58,2031.75,3432.90,3320.95,3605.92,499.85,492.74,4.31,0000 0000 0000 0000 000000
2014-07-24 03:47:01,-0.01,0.01,0.00,25.01,29.27,31.54,9.52,39.00,1015.61,2031.60,3432.57,3320.88,3605.64,499.97,492.77,4.35,0000 0000 0000 0000 000000
2014-07-24 03:52:02,0.02,0.01,0.00,25.02,29.27,31.55,9.46,39.01,1015.58,2031.64,3432.24,3320.87,3605.59,500.05,492.88,4.39,0000 0000 0000 0000 000000
2014-07-24 03:57:03,-0.00,0.01,0.00,25.04,29.28,31.56,9.51,39.11,1015.60,2031.67,3432.18,3320.87,3605.49,500.01,492.86,4.43,0000 0000 0000 0000 000000
2014-07-24 04:02:04,0.00,0.01,0.00,25.04,29.29,31.57,9.49,39.08,1015.64,2031.65,3432.07,3320.92,3605.20,500.19,492.98,4.48,0000 0000 0000 0000 000000
2014-07-24 04:07:05,0.01,0.01,0.00,25.02,29.30,31.57,9.45,39.18,1015.64,2031.68,3432.02,3320.70,3605.14,499.99,492.76,4.52,0000 0000 0000 0000 000000
2014-07-24 04:12:06,-0.02,0.01,0.00,25.05,29.30,31.56,9.50,39.05,1015.64,2031.47,3431.99,3320.35,3605.03,499.73,492.44,4.56,0000 0000 0000 0000 000000
2014-07-24 04:17:07,-0.02,0.01,0.00,25.06,29.30,31.58,9.54,39.03,1015.64,2031.24,3431.99,3320.15,3605.00,500.35,493.12,4.60,0000 0000 0000 0000 000000
2014-07-24 04:22:08,-0.00,0.01,0.00,25.07,29.30,31.57,9.48,38.87,1015.64,2031.21,3431.99,3320.09,3605.00,500.21,493.11,4.64,0000 0000 0000 0000 000000
2014-07-24 04:27:09,-0.00,0.01,0.00,25.07,29.30,31.58,9.45,38.96,1015.64,2031.21,3431.98,3320.08,3605.00,500.47,493.17,4.69,0000 0000 0000 0000 000000
2014-07-24 04:32:09,-0.01,0.01,0.00,25.05,29.32,31.59,9.42,39.08,1015.64,2031.06,3431.97,3320.04,3604.98,499.48,492.40,4.73,0000 0000 0000 0000 000000
2014-07-24 04:37:10,0.00,0.01,0.00,25.08,29.32,31.60,9.51,39.11,1015.64,2031.09,3431.86,3320.01,3604.99,500.15,492.99,4.77,0000 0000 0000 0000 000000
2014-07-24 04:42:11,0.00,0.01,0.00,25.08,29.32,31.59,9.53,39.02,1015.65,2031.05,3431.65,3320.00,3604.94,499.83,492.53,4.81,0000 0000 0000 0000 000000
2014-07-24 04:47:12,0.00,0.01,0.00,25.09,29.32,31.60,9.49,39.12,1015.66,2031.03,3431.34,3320.00,3604.76,499.82,492.44,4.85,0000 0000 0000 0000 000000
2014-07-24 04:52:14,0.01,0.01,0.00,25.11,29.32,31.61,9.47,39.00,1015.70,2031.02,3431.17,3320.00,3604.53,499.58,492.56,4.89,0000 0000 0000 0000 000000
2014-07-24 04:57:14,0.00,0.01,0.00,25.09,29.34,31.61,9.47,39.13,1015.69,2031.01,3431.04,3320.00,3604.21,499.91,492.60,4.94,0000 0000 0000 0000 000000
2014-07-24 05:02:15,0.00,0.01,0.00,25.08,29.35,31.62,9.55,39.23,1015.65,2031.00,3431.01,3320.00,3604.09,500.22,492.87,4.98,0000 0000 0000 0000 000000
2014-07-24 05:07:15,0.00,0.01,0.00,25.09,29.35,31.63,9.54,39.05,1015.66,2031.01,3431.00,3320.00,3604.05,500.15,492.97,5.02,0000 0000 0000 0000 000000
2014-07-24 05:12:17,0.00,0.01,0.00,25.12,29.35,31.63,9.49,39.03,1015.67,2031.01,3431.00,3319.99,3604.04,500.17,492.91,5.06,0000 0000 0000 0000 000000
2014-07-24 05:17:18,0.00,0.01,0.00,25.12,29.35,31.62,9.53,39.06,1015.67,2031.01,3431.00,3319.99,3604.01,500.17,492.92,5.10,0000 0000 0000 0000 000000
2014-07-24 05:22:19,0.00,0.01,0.00,25.11,29.35,31.63,9.45,38.94,1015.76,2031.00,3431.00,3319.98,3604.00,499.85,492.61,5.15,0000 0000 0000 0000 000000
2014-07-24 05:27:20,0.01,0.01,0.00,25.11,29.37,31.64,9.47,39.00,1015.93,2031.00,3430.95,3319.82,3603.99,500.14,492.96,5.19,0000 0000 0000 0000 000000
2014-07-24 05:32:21,-0.00,0.01,0.00,25.12,29.37,31.66,9.48,39.01,1015.84,2031.00,3430.94,3319.77,3603.99,499.90,492.75,5.23,0000 0000 0000 0000 000000
2014-07-24 05:37:22,0.00,0.01,0.00,25.14,29.37,31.65,9.48,38.98,1015.78,2031.00,3430.95,3319.90,3603.99,500.23,492.97,5.27,0000 0000 0000 0000 000000
2014-07-24 05:42:22,0.00,0.01,0.00,25.14,29.37,31.66,9.50,38.98,1015.86,2031.00,3430.94,3319.88,3603.99,499.79,492.67,5.31,0000 0000 0000 0000 000000
2014-07-24 05:47:24,0.01,0.01,0.00,25.14,29.38,31.65,9.52,38.91,1015.95,2030.99,3430.87,3319.67,3603.98,500.10,492.94,5.35,0000 0000 0000 0000 000000
2014-07-24 05:52:25,0.00,0.01,0.00,25.16,29.39,31.66,9.55,38.97,1015.96,2030.99,3430.90,3319.80,3603.96,500.22,492.99,5.40,0000 0000 0000 0000 000000
2014-07-24 05:57:26,-0.00,0.01,0.00,25.17,29.40,31.67,9.41,38.87,1016.05,2030.99,3430.88,3319.76,3603.97,500.01,492.70,5.44,0000 0000 0000 0000 000000
2014-07-24 06:02:27,-0.00,0.01,0.00,25.19,29.40,31.67,9.43,39.04,1016.12,2030.99,3430.89,3319.83,3603.96,499.21,492.19,5.48,0000 0000 0000 0000 000000
2014-07-24 06:07:28,0.01,0.01,0.00,25.17,29.40,31.68,9.45,38.94,1016.12,2030.99,3430.74,3319.66,3603.95,499.74,492.44,5.52,0000 0000 0000 0000 000000
2014-07-24 06:12:29,0.01,0.01,0.00,25.18,29.40,31.69,9.44,38.83,1016.09,2030.99,3430.62,3319.57,3603.84,499.72,492.55,5.56,0000 0000 0000 0000 000000
2014-07-24 06:17:30,0.02,0.01,0.00,25.18,29.41,31.68,9.45,38.95,1016.09,2030.99,3430.14,3319.23,3603.56,499.71,492.32,5.61,0000 0000 0000 0000 000000
2014-07-24 06:22:31,0.01,0.01,0.00,25.20,29.42,31.70,9.48,39.03,1016.13,2030.99,3430.13,3319.12,3603.38,499.76,492.55,5.65,0000 0000 0000 0000 000000
2014-07-24 06:27:32,0.01,0.01,0.00,25.21,29.42,31.70,9.53,38.95,1016.13,2030.98,3430.02,3319.01,3603.09,499.95,492.85,5.69,0000 0000 0000 0000 000000
2014-07-24 06:32:33,0.00,0.01,0.00,25.24,29.42,31.71,9.45,38.82,1016.13,2030.98,3430.01,3319.01,3603.04,500.06,492.82,5.73,0000 0000 0000 0000 000000
2014-07-24 06:37:34,0.00,0.01,0.00,25.26,29.43,31.72,9.43,38.88,1016.13,2030.96,3430.00,3319.00,3603.01,499.60,492.34,5.77,0000 0000 0000 0000 000000
2014-07-24 06:42:35,-0.00,0.01,0.00,25.29,29.45,31.73,9.47,38.88,1016.13,2030.97,3430.00,3319.00,3603.00,499.95,492.48,5.81,0000 0000 0000 0000 000000
2014-07-24 06:47:36,-0.00,0.01,0.00,25.30,29.45,31.72,9.48,38.92,1016.13,2030.97,3429.99,3319.00,3603.00,500.49,493.00,5.86,0000 0000 0000 0000 000000
2014-07-24 06:52:37,-0.00,0.01,0.00,25.32,29.45,31.73,9.47,38.98,1016.13,2030.97,3429.95,3319.00,3603.00,499.73,492.37,5.90,0000 0000 0000 0000 000000
2014-07-24 06:57:38,0.00,0.01,0.00,25.32,29.47,31.75,9.47,38.89,1016.13,2030.95,3429.95,3319.00,3603.00,499.74,492.28,5.94,0000 0000 0000 0000 000000
2014-07-24 07:02:40,-0.01,0.01,0.00,25.34,29.47,31.75,9.48,38.95,1016.13,2030.85,3429.73,3318.98,3602.96,500.14,492.61,5.98,0000 0000 0000 0000 000000
2014-07-24 07:07:41,-0.00,0.01,0.00,25.35,29.48,31.75,9.46,38.79,1016.13,2030.73,3429.49,3318.89,3602.84,499.86,492.51,6.02,0000 0000 0000 0000 000000
2014-07-24 07:12:42,0.02,0.01,0.00,25.37,29.50,31.77,9.48,38.94,1016.13,2030.69,3429.13,3318.81,3602.82,500.13,492.61,6.06,0000 0000 0000 0000 000000
2014-07-24 07:17:43,-0.01,0.01,0.00,25.38,29.50,31.79,9.47,38.87,1016.13,2030.65,3429.06,3318.58,3602.48,500.15,492.83,6.11,0000 0000 0000 0000 000000
2014-07-24 07:22:44,-0.00,0.01,0.00,25.40,29.51,31.79,9.43,38.96,1016.13,2030.48,3429.00,3318.22,3602.19,499.65,492.14,6.15,0000 0000 0000 0000 000000
2014-07-24 07:27:45,-0.01,0.01,0.00,25.39,29.52,31.80,9.52,38.92,1016.14,2030.25,3429.00,3318.02,3602.02,499.97,492.34,6.19,0000 0000 0000 0000 000000
2014-07-24 07:32:46,0.01,0.01,0.00,25.40,29.52,31.80,9.47,38.88,1016.15,2030.28,3429.00,3318.04,3602.02,499.67,492.17,6.23,0000 0000 0000 0000 000000
2014-07-24 07:37:47,-0.02,0.01,0.00,25.42,29.55,31.82,9.51,38.78,1016.15,2030.21,3428.99,3318.01,3602.01,500.27,492.66,6.27,0000 0000 0000 0000 000000
2014-07-24 07:42:48,-0.01,0.01,0.00,25.41,29.55,31.83,9.55,38.86,1016.15,2030.06,3428.95,3318.00,3602.00,500.49,492.92,6.32,0000 0000 0000 0000 000000
2014-07-24 07:47:49,-0.00,0.01,0.00,25.44,29.56,31.83,9.42,38.69,1016.16,2030.02,3428.90,3318.00,3601.98,499.83,492.06,6.36,0000 0000 0000 0000 000000
2014-07-24 07:52:50,0.00,0.01,0.00,25.45,29.57,31.85,9.54,38.85,1016.15,2030.01,3428.88,3317.99,3601.98,500.14,492.57,6.40,0000 0000 0000 0000 000000
2014-07-24 07:57:51,0.01,0.01,0.00,25.49,29.58,31.86,9.46,38.89,1016.18,2030.00,3428.48,3317.97,3601.88,499.66,492.11,6.44,0000 0000 0000 0000 000000
2014-07-24 08:02:51,-0.00,0.01,0.00,25.50,29.60,31.87,9.48,38.85,1016.18,2030.00,3428.40,3317.99,3601.78,500.21,492.70,6.48,0000 0000 0000 0000 000000
2014-07-24 08:07:53,0.01,0.01,0.00,25.50,29.60,31.88,9.47,38.78,1016.19,2030.00,3428.15,3317.94,3601.46,499.96,492.43,6.52,0000 0000 0000 0000 000000
2014-07-24 08:12:54,0.01,0.01,0.00,25.50,29.62,31.90,9.55,38.74,1016.21,2030.00,3428.02,3317.68,3601.10,500.37,492.67,6.57,0000 0000 0000 0000 000000
2014-07-24 08:17:54,0.01,0.01,0.00,25.52,29.62,31.89,9.47,38.83,1016.32,2030.00,3428.00,3317.34,3601.03,499.86,492.16,6.61,0000 0000 0000 0000 000000
2014-07-24 08:22:55,0.00,0.01,0.00,25.55,29.64,31.92,9.49,38.58,1016.41,2030.00,3428.00,3317.20,3601.01,500.19,492.24,6.65,0000 0000 0000 0000 000000
2014-07-24 08:27:57,0.00,0.01,0.00,25.53,29.65,31.93,9.42,38.67,1016.51,2030.00,3427.99,3317.06,3601.00,499.98,492.39,6.69,0000 0000 0000 0000 000000
2014-07-24 08:32:57,0.00,0.01,0.00,25.54,29.66,31.93,9.46,38.67,1016.37,2029.99,3427.99,3317.02,3600.99,499.94,492.24,6.73,0000 0000 0000 0000 000000
2014-07-24 08:37:59,-0.00,0.01,0.00,25.55,29.67,31.95,9.44,38.52,1016.47,2029.98,3427.99,3317.00,3600.98,499.96,492.49,6.78,0000 0000 0000 0000 000000
2014-07-24 08:43:00,0.00,0.01,0.00,25.56,29.68,31.96,9.44,38.55,1016.61,2029.95,3427.90,3317.00,3600.91,499.84,492.45,6.82,0000 0000 0000 0000 000000
2014-07-24 08:48:01,0.01,0.01,0.00,25.58,29.70,31.97,9.45,38.70,1016.60,2029.87,3427.41,3316.98,3600.40,499.58,492.02,6.86,0000 0000 0000 0000 000000
2014-07-24 08:53:02,-0.01,0.01,0.00,25.59,29.70,31.99,9.44,38.73,1016.62,2029.76,3427.06,3316.93,3600.06,499.97,492.20,6.90,0000 0000 0000 0000 000000
2014-07-24 08:58:03,0.01,0.01,0.00,25.60,29.72,31.99,9.47,38.86,1016.62,2029.83,3427.04,3316.95,3600.08,500.17,492.58,6.94,0000 0000 0000 0000 000000
2014-07-24 09:03:04,0.00,0.01,0.00,25.60,29.72,32.00,9.55,38.88,1016.62,2029.79,3427.00,3316.93,3600.05,500.37,492.80,6.98,0000 0000 0000 0000 000000
2014-07-24 09:08:05,-0.01,0.01,0.00,25.61,29.75,32.00,9.47,38.65,1016.62,2029.69,3427.00,3316.45,3600.01,499.96,492.33,7.03,0000 0000 0000 0000 000000
2014-07-24 09:13:06,-0.00,0.01,0.00,25.61,29.75,32.01,9.44,38.69,1016.62,2029.51,3427.00,3316.18,3600.00,499.94,491.94,7.07,0000 0000 0000 0000 000000
2014-07-24 09:18:06,0.00,0.01,0.00,25.64,29.76,32.03,9.47,38.71,1016.62,2029.43,3426.97,3316.07,3600.00,500.00,492.35,7.11,0000 0000 0000 0000 000000
2014-07-24 09:23:08,-0.04,0.01,0.00,25.65,29.77,32.04,9.40,38.68,1016.62,2029.18,3426.95,3316.03,3600.00,499.77,492.21,7.15,0000 0000 0000 0000 000000
2014-07-24 09:28:08,0.00,0.01,0.00,25.63,29.77,32.05,9.51,38.80,1016.62,2029.09,3426.75,3316.00,3599.88,500.20,492.53,7.19,0000 0000 0000 0000 000000
2014-07-24 09:33:09,0.01,0.01,0.00,25.63,29.78,32.07,9.40,38.70,1016.62,2029.02,3426.22,3316.00,3599.56,500.11,492.25,7.24,0000 0000 0000 0000 000000
2014-07-24 09:38:11,0.01,0.01,0.00,25.64,29.80,32.07,9.46,38.74,1016.62,2029.01,3426.06,3315.99,3599.18,499.97,492.24,7.28,0000 0000 0000 0000 000000
2014-07-24 09:43:12,0.00,0.01,0.00,25.64,29.80,32.09,9.50,38.83,1016.62,2029.00,3426.02,3315.96,3599.05,499.80,492.24,7.32,0000 0000 0000 0000 000000
2014-07-24 09:48:13,0.00,0.01,0.00,25.66,29.82,32.10,9.46,38.70,1016.62,2029.00,3426.00,3315.96,3599.00,500.01,492.23,7.36,0000 0000 0000 0000 000000
2014-07-24 09:53:14,0.00,0.01,0.00,25.66,29.82,32.11,9.46,38.63,1016.62,2029.00,3426.00,3315.90,3599.00,499.92,492.18,7.40,0000 0000 0000 0000 000000
2014-07-24 09:58:14,0.01,0.01,0.00,25.67,29.83,32.12,9.47,38.60,1016.62,2029.00,3425.99,3315.50,3599.00,499.94,492.30,7.45,0000 0000 0000 0000 000000
2014-07-24 10:03:15,0.00,0.01,0.00,25.67,29.85,32.12,9.41,38.73,1016.62,2029.00,3425.98,3315.34,3598.98,499.81,492.23,7.49,0000 0000 0000 0000 000000
2014-07-24 10:08:16,0.00,0.01,0.00,25.67,29.85,32.13,9.52,38.85,1016.62,2029.00,3425.92,3315.05,3598.96,500.35,492.61,7.53,0000 0000 0000 0000 000000
2014-07-24 10:13:17,0.00,0.01,0.00,25.69,29.85,32.14,9.49,38.77,1016.63,2029.00,3425.76,3315.02,3598.95,499.84,492.24,7.57,0000 0000 0000 0000 000000
2014-07-24 10:18:18,0.01,0.02,0.00,25.71,29.87,32.16,9.45,38.71,1016.63,2029.00,3425.52,3315.02,3598.84,500.00,492.18,7.61,0000 0000 0000 0000 000000
2014-07-24 10:23:20,0.01,0.02,0.00,25.74,29.87,32.16,9.45,38.86,1016.64,2028.99,3425.15,3315.00,3598.38,499.87,491.94,7.65,0000 0000 0000 0000 000000
2014-07-24 10:28:21,-0.00,0.02,0.00,25.72,29.88,32.16,9.48,38.73,1016.63,2028.97,3425.04,3315.00,3598.15,500.00,492.25,7.70,0000 0000 0000 0000 000000
2014-07-24 10:33:22,0.00,0.02,0.00,25.72,29.90,32.16,9.52,38.79,1016.65,2028.95,3425.01,3314.99,3598.02,500.06,492.22,7.74,0000 0000 0000 0000 000000
2014-07-24 10:38:23,-0.00,0.02,0.00,25.73,29.90,32.19,9.51,38.83,1016.63,2028.94,3425.00,3314.97,3598.01,500.26,492.48,7.78,0000 0000 0000 0000 000000
2014-07-24 10:43:24,-0.00,0.02,0.00,25.74,29.91,32.20,9.48,38.74,1016.64,2028.93,3425.00,3314.95,3598.00,500.06,492.24,7.82,0000 0000 0000 0000 000000
2014-07-24 10:48:25,-0.01,0.02,0.00,25.75,29.92,32.19,9.45,38.63,1016.66,2028.73,3424.99,3314.71,3597.99,499.95,492.02,7.86,0000 0000 0000 0000 000000
2014-07-24 10:53:26,-0.02,0.01,0.00,25.78,29.92,32.21,9.46,38.71,1016.66,2028.44,3424.90,3314.19,3597.91,499.87,491.88,7.90,0000 0000 0000 0000 000000
2014-07-24 10:58:27,0.02,0.02,0.00,25.77,29.93,32.22,9.43,38.77,1016.65,2028.41,3424.49,3314.08,3597.70,499.72,491.81,7.95,0000 0000 0000 0000 000000
2014-07-24 11:03:29,0.01,0.02,0.00,25.76,29.95,32.23,9.54,38.79,1016.69,2028.45,3424.22,3314.08,3597.55,500.43,492.49,7.99,0000 0000 0000 0000 000000
2014-07-24 11:08:30,-0.01,0.02,0.00,25.76,29.95,32.24,9.49,38.71,1016.65,2028.26,3424.02,3313.99,3597.11,500.16,492.26,8.03,0000 0000 0000 0000 000000
2014-07-24 11:13:30,0.00,0.02,0.00,25.77,29.95,32.23,9.47,38.71,1016.65,2028.19,3423.90,3313.85,3596.99,499.47,491.58,8.07,0000 0000 0000 0000 000000
2014-07-24 11:18:31,0.10,0.02,0.00,25.76,29.97,32.25,9.47,38.70,1016.75,2028.12,3422.33,3312.61,3595.76,499.90,492.07,8.11,0000 0000 0000 0000 000000
2014-07-24 11:23:33,0.02,0.02,0.00,25.77,29.97,32.25,9.47,38.57,1016.99,2028.09,3421.06,3312.00,3595.01,499.91,492.04,8.16,0000 0000 0000 0000 000000
2014-07-24 11:28:34,0.01,0.02,0.00,25.77,29.97,32.26,9.48,38.80,1016.99,2028.08,3420.97,3311.85,3594.91,499.95,492.16,8.20,0000 0000 0000 0000 000000
2014-07-24 11:33:35,0.03,0.02,0.00,25.76,29.98,32.27,9.50,38.74,1016.89,2028.04,3420.74,3311.32,3594.39,500.05,492.16,8.24,0000 0000 0000 0000 000000
2014-07-24 11:38:36,0.00,0.02,0.00,25.74,30.00,32.29,9.52,38.73,1016.70,2028.03,3420.41,3311.18,3594.18,500.25,492.44,8.28,0000 0000 0000 0000 000000
2014-07-24 11:43:37,0.01,0.02,0.00,25.72,30.00,32.28,9.44,38.72,1016.74,2028.02,3420.10,3311.03,3594.03,499.98,492.29,8.32,0000 0000 0000 0000 000000
2014-07-24 11:48:38,-0.00,0.02,0.00,25.71,30.00,32.29,9.42,38.62,1016.82,2028.02,3420.07,3311.05,3594.04,499.66,492.00,8.36,0000 0000 0000 0000 000000
2014-07-24 11:53:40,-0.00,0.02,0.00,25.70,30.00,32.29,9.48,38.67,1016.67,2028.03,3420.20,3311.07,3594.08,499.96,492.37,8.41,0000 0000 0000 0000 000000
2014-07-24 11:58:41,0.01,0.02,0.00,25.69,30.00,32.30,9.48,38.63,1016.65,2028.02,3420.10,3311.02,3594.01,500.19,492.44,8.45,0000 0000 0000 0000 000000
2014-07-24 12:03:42,0.00,0.02,0.00,25.68,30.00,32.29,9.43,38.62,1016.64,2028.02,3420.00,3311.01,3594.00,500.04,492.34,8.49,0000 0000 0000 0000 000000
2014-07-24 12:08:43,-0.00,0.02,0.00,25.65,30.00,32.30,9.51,38.74,1016.63,2028.00,3420.00,3311.00,3593.98,500.17,492.46,8.53,0000 0000 0000 0000 000000
2014-07-24 12:13:44,0.00,0.02,0.00,25.62,30.00,32.28,9.52,38.76,1016.64,2028.00,3420.00,3310.99,3593.97,499.93,492.31,8.57,0000 0000 0000 0000 000000
2014-07-24 12:18:44,0.00,0.02,0.00,25.62,30.00,32.28,9.53,38.67,1016.64,2028.01,3420.00,3310.99,3593.96,500.03,492.35,8.62,0000 0000 0000 0000 000000
2014-07-24 12:23:45,0.00,0.02,0.00,25.60,30.00,32.27,9.55,38.84,1016.64,2028.00,3419.96,3310.96,3593.85,500.37,492.71,8.66,0000 0000 0000 0000 000000
2014-07-24 12:28:46,0.00,0.02,0.00,25.59,30.00,32.27,9.45,38.88,1016.64,2028.00,3419.94,3310.92,3593.75,499.72,492.22,8.70,0000 0000 0000 0000 000000
2014-07-24 12:33:47,0.02,0.02,0.00,25.55,29.99,32.28,9.56,38.88,1016.64,2028.00,3419.69,3310.78,3593.56,500.46,492.86,8.74,0000 0000 0000 0000 000000
2014-07-24 12:38:49,0.02,0.03,0.00,25.55,29.97,32.27,9.47,38.86,1016.63,2028.00,3419.09,3310.34,3593.08,499.71,492.32,8.78,0000 0000 0000 0000 000000
2014-07-24 12:43:50,0.01,0.03,0.00,25.54,29.97,32.25,9.53,38.88,1016.63,2028.01,3418.96,3310.08,3593.02,499.80,492.32,8.82,0000 0000 0000 0000 000000
2014-07-24 12:48:51,0.01,0.03,0.00,25.52,29.97,32.25,9.48,38.78,1016.63,2028.02,3418.51,3310.00,3592.99,500.00,492.54,8.87,0000 0000 0000 0000 000000
2014-07-24 12:53:52,-0.00,0.03,0.00,25.51,29.97,32.24,9.51,38.83,1016.63,2028.01,3418.53,3310.00,3592.99,500.03,492.74,8.91,0000 0000 0000 0000 000000
2014-07-24 12:58:54,0.00,0.03,0.00,25.50,29.95,32.22,9.46,38.74,1016.62,2028.03,3418.38,3310.00,3592.98,499.78,492.38,8.95,0000 0000 0000 0000 000000
2014-07-24 13:03:54,0.00,0.03,0.00,25.48,29.95,32.22,9.49,38.79,1016.62,2028.03,3418.13,3310.00,3592.99,500.14,492.61,8.99,0000 0000 0000 0000 000000